Weather in Sivys-Yakh

Russia / Khanty-Mansi Autonomous Okrug — Yugra     60°09′45″N   71°42′23″E
temp.,
°C
wind,
m/s
gust,
m/s
humid.,
%
clouds,
%
prec.,
mm/h
press.,
hPa
HPBL,
m
12 august, fri
fri1223:00+14se38656 0.0 1016156
02:00+13se287390 0.0 1014159
05:00+12se38774 0.0 1013171
08:00+19sse365743 0.0 1012466
11:00+21sw5760100 0.1 10101079
14:00+15s1597100 2.9 1009189
17:00+19wsw248094 3.0 1008657
20:00+17sw2586100 0.1 1007123
13 august, sat
sat1323:00+13wsw249389 0.1 100681
02:00+12wsw269820 0.0 1005146
05:00+12sw269862 0.0 1004154
08:00+14wsw2788100 0.0 1003342
11:00+16wsw468593 1.3 1002645
14:00+18wnw4679100 2.9 1001845
17:00+15wnw3790100 8.1 1001390
20:00+13nw51192100 2.2 1002556
14 august, sun
sun1423:00+12nw51295100 9.3 1004892
02:00+10nw5149210 0.6 1005717
05:00+8nw4129497 0.6 1007467
08:00+12nw59775 0.0 1008664
11:00+13nw4864100 0.1 10091095
14:00+15nw5759100 0.1 10101348
17:00+13nw487373 0.2 10121032
20:00+11nw4975100 0.1 1013758
15 august, mon
mon1523:00+10nw4976100 0.1 1013766
02:00+8wnw3108546 0.0 1014485
05:00+8wnw3985100 0.1 1015476
08:00+9nw487334 0.0 1016688
11:00+12nw575097 0.0 10161783
14:00+10nw4655100 0.0 10181575
17:00+10nw4761100 0.0 10191160
20:00+9nw3764100 0.0 1019489
16 august, tue
tue1623:00+8wnw3872100 0.0 1019352
02:00+8wnw2677100 0.0 1018221
05:00+8wnw257814 0.0 1018140
08:00+12wnw25566 0.0 1018489
11:00+15wnw354278 0.0 10171806
14:00+16w3544100 0.0 10151719
17:00+13wnw4873100 0.1 1015674
20:00+10wnw2596100 2.9 1014228